TimePST,TemperatureF,Dew PointF,Humidity,Sea Level PressureIn,VisibilityMPH,Wind Direction,Wind SpeedMPH,Gust SpeedMPH,PrecipitationIn,Events,Conditions,WindDirDegrees,DateUTC
12:15 AM,21.2,17.6,86,30.31,10.0,Calm,Calm,-,N/A,,Clear,0,2013-02-03 08:15:00
12:35 AM,21.2,17.6,86,30.31,10.0,Calm,Calm,-,N/A,,Clear,0,2013-02-03 08:35:00
12:55 AM,19.4,15.8,86,30.31,10.0,Calm,Calm,-,N/A,,Clear,0,2013-02-03 08:55:00
1:15 AM,19.4,15.8,86,30.30,10.0,Calm,Calm,-,N/A,,Clear,0,2013-02-03 09:15:00
1:35 AM,21.2,17.6,86,30.30,10.0,Calm,Calm,-,N/A,,Clear,0,2013-02-03 09:35:00
1:55 AM,17.6,14.0,86,30.30,10.0,Calm,Calm,-,N/A,,Clear,0,2013-02-03 09:55:00
2:15 AM,17.6,15.8,93,30.30,10.0,Calm,Calm,-,N/A,,Clear,0,2013-02-03 10:15:00
2:35 AM,17.6,17.6,100,30.29,10.0,Calm,Calm,-,N/A,,Clear,0,2013-02-03 10:35:00
2:55 AM,19.4,17.6,93,30.28,10.0,Calm,Calm,-,N/A,,Clear,0,2013-02-03 10:55:00
3:15 AM,19.4,15.8,86,30.28,10.0,Calm,Calm,-,N/A,,Clear,0,2013-02-03 11:15:00
3:35 AM,17.6,15.8,93,30.28,10.0,Calm,Calm,-,N/A,,Clear,0,2013-02-03 11:35:00
3:55 AM,17.6,15.8,93,30.27,10.0,Calm,Calm,-,N/A,,Clear,0,2013-02-03 11:55:00
4:15 AM,15.8,14.0,93,30.27,10.0,Calm,Calm,-,N/A,,Clear,0,2013-02-03 12:15:00
4:35 AM,17.6,15.8,93,30.26,10.0,Calm,Calm,-,N/A,,Clear,0,2013-02-03 12:35:00
4:55 AM,19.4,15.8,86,30.26,10.0,Calm,Calm,-,N/A,,Clear,0,2013-02-03 12:55:00
5:15 AM,15.8,14.0,93,30.26,10.0,Calm,Calm,-,N/A,,Clear,0,2013-02-03 13:15:00
5:35 AM,15.8,14.0,93,30.26,10.0,SE,3.5,-,N/A,,Clear,130,2013-02-03 13:35:00
6:55 AM,15.8,14.0,93,30.28,10.0,Calm,Calm,-,N/A,,Scattered Clouds,0,2013-02-03 14:55:00
7:50 AM,14.0,10.4,86,30.28,10.0,SSE,3.5,-,N/A,,Scattered Clouds,150,2013-02-03 15:50:00
8:55 AM,19.4,17.6,93,30.29,10.0,Calm,Calm,-,N/A,,Clear,0,2013-02-03 16:55:00
9:50 AM,24.8,17.6,74,30.29,10.0,Calm,Calm,-,N/A,,Partly Cloudy,0,2013-02-03 17:50:00
11:55 AM,32.0,19.4,60,30.28,10.0,Calm,Calm,-,N/A,,Partly Cloudy,0,2013-02-03 19:55:00
12:55 PM,42.8,19.4,39,30.23,10.0,Calm,Calm,-,N/A,,Partly Cloudy,0,2013-02-03 20:55:00
1:50 PM,46.4,15.8,29,30.21,10.0,NNE,3.5,-,N/A,,Partly Cloudy,30,2013-02-03 21:50:00
2:50 PM,46.4,17.6,32,30.22,10.0,NE,8.1,-,N/A,,Partly Cloudy,40,2013-02-03 22:50:00
3:50 PM,44.6,19.4,37,30.22,10.0,NNE,8.1,-,N/A,,Clear,20,2013-02-03 23:50:00
4:55 PM,42.8,19.4,39,30.22,10.0,North,4.6,-,N/A,,Clear,10,2013-02-04 00:55:00
5:15 PM,41.0,19.4,42,30.22,10.0,North,3.5,-,N/A,,Clear,350,2013-02-04 01:15:00
5:35 PM,35.6,21.2,56,30.22,10.0,South,3.5,-,N/A,,Clear,190,2013-02-04 01:35:00
5:55 PM,32.0,23.0,69,30.23,10.0,South,3.5,-,N/A,,Clear,180,2013-02-04 01:55:00
6:15 PM,32.0,19.4,60,30.23,10.0,SE,3.5,-,N/A,,Clear,140,2013-02-04 02:15:00
6:35 PM,32.0,21.2,64,30.24,10.0,SE,3.5,-,N/A,,Clear,140,2013-02-04 02:35:00
6:55 PM,32.0,21.2,64,30.25,10.0,South,5.8,-,N/A,,Clear,180,2013-02-04 02:55:00
7:15 PM,26.6,21.2,80,30.25,10.0,Calm,Calm,-,N/A,,Clear,0,2013-02-04 03:15:00
7:35 PM,30.2,19.4,64,30.24,10.0,SSE,3.5,-,N/A,,Clear,160,2013-02-04 03:35:00
7:55 PM,26.6,19.4,74,30.25,10.0,Calm,Calm,-,N/A,,Clear,0,2013-02-04 03:55:00
8:15 PM,26.6,19.4,74,30.25,10.0,Calm,Calm,-,N/A,,Clear,0,2013-02-04 04:15:00
8:35 PM,26.6,19.4,74,30.26,10.0,South,4.6,-,N/A,,Clear,170,2013-02-04 04:35:00
8:55 PM,24.8,19.4,80,30.27,10.0,Calm,Calm,-,N/A,,Clear,0,2013-02-04 04:55:00
9:15 PM,26.6,19.4,74,30.27,10.0,Calm,Calm,-,N/A,,Clear,0,2013-02-04 05:15:00
9:35 PM,24.8,19.4,80,30.27,10.0,Calm,Calm,-,N/A,,Clear,0,2013-02-04 05:35:00
9:55 PM,24.8,19.4,80,30.25,10.0,Calm,Calm,-,N/A,,Clear,0,2013-02-04 05:55:00
10:15 PM,23.0,19.4,86,30.25,10.0,Calm,Calm,-,N/A,,Clear,0,2013-02-04 06:15:00
10:35 PM,26.6,19.4,74,30.25,10.0,North,6.9,-,N/A,,Clear,360,2013-02-04 06:35:00
10:55 PM,21.2,17.6,86,30.26,10.0,Calm,Calm,-,N/A,,Clear,0,2013-02-04 06:55:00
11:15 PM,23.0,17.6,80,30.27,10.0,Calm,Calm,-,N/A,,Clear,0,2013-02-04 07:15:00
11:35 PM,19.4,17.6,93,30.27,10.0,South,4.6,-,N/A,,Clear,180,2013-02-04 07:35:00
11:55 PM,21.2,17.6,86,30.27,10.0,Calm,Calm,-,N/A,,Clear,0,2013-02-04 07:55:00